Demopolis Municipal Airport, AL

6:45 PM CST on November 12, 2019 (GMT -0600)
Demopolis Municipal Airport

Weather History for KDYA - September, 2019

Change the Weather History Date:

Thursday, September 26, 2019

  Actual Average (KNMM) Record (KNMM)
Temperature  
Mean Temperature 82 °F -  
Max Temperature 95 °F 80 °F 96 °F (2016)
Min Temperature 70 °F 59 °F 44 °F (2001)
Cooling Degree Days 18    
Growing Degree Days 32 (Base 50)    
Moisture  
Dew Point 68 °F    
Average Humidity 68    
Maximum Humidity 100    
Minimum Humidity 34    
Precipitation  
Precipitation 0.00 in - - ()
Sea Level Pressure  
Sea Level Pressure 29.91 in    
Wind  
Wind Speed 1 mph ()    
Max Wind Speed 12 mph    
Max Gust Speed 17 mph    
Visibility 9.7 miles    
Events      
Averages and records for this station are not official NWS values.
T = Trace of Precipitation, MM = Missing Value Source: Averaged Metar Reports

Daily Weather History Graph

Daily Weather History Graph

Search for Another Location

Airport or City:

Astronomy

Sep. 26, 2019 Rise Set
Actual Time 6:42 AM CDT 6:43 PM CDT
Civil Twilight 6:17 AM CDT 7:07 PM CDT
Nautical Twilight 5:49 AM CDT 7:36 PM CDT
Astronomical Twilight 5:20 AM CDT 8:05 PM CDT
Moon 4:02 AM CDT (9/26) 5:44 PM CDT (9/26)
Length of Visible Light 12h 49m
Length of Day
12h 00m
Waning Crescent, 6% of the Moon is Illuminated
Sep 26
Waning Crescent
Sep 28
New
Oct 5
First Quarter
Oct 13
Full
Oct 21
Last Quarter

Hourly Weather History & Observations

Time (CDT) Temp. Heat Index Dew Point Humidity Pressure Visibility Wind Dir Wind Speed Gust Speed Precip Events Conditions
12:15 AM 74.3 °F - 70.7 °F 88% 29.90 in 10.0 mi Calm Calm - N/A   Clear
12:35 AM 73.8 °F - 70.7 °F 90% 29.89 in 10.0 mi Calm Calm - N/A   Clear
1:15 AM 73.0 °F - 70.5 °F 92% 29.88 in 10.0 mi Calm Calm - N/A   Clear
1:35 AM 72.3 °F - 70.0 °F 92% 29.88 in 10.0 mi Calm Calm - N/A   Clear
1:55 AM 73.2 °F - 70.9 °F 92% 29.87 in 10.0 mi Calm Calm - N/A   Clear
2:15 AM 72.9 °F - 70.7 °F 93% 29.87 in 10.0 mi Calm Calm - N/A   Clear
2:35 AM 72.9 °F - 70.5 °F 92% 29.87 in 10.0 mi Calm Calm - N/A   Clear
2:55 AM 72.1 °F - 70.2 °F 93% 29.87 in 10.0 mi Calm Calm - N/A   Clear
3:15 AM 72.5 °F - 70.7 °F 94% 29.87 in 10.0 mi Calm Calm - N/A   Mostly Cloudy
3:35 AM 71.6 °F - 69.8 °F 94% 29.88 in 10.0 mi Calm Calm - N/A   Overcast
3:55 AM 72.0 °F - 70.5 °F 95% 29.89 in 10.0 mi Calm Calm - N/A   Scattered Clouds
4:15 AM 71.8 °F - 70.2 °F 95% 29.89 in 10.0 mi Calm Calm - N/A   Scattered Clouds
4:35 AM 71.6 °F - 70.2 °F 95% 29.90 in 10.0 mi Calm Calm - N/A   Scattered Clouds
4:55 AM 71.6 °F - 70.0 °F 95% 29.91 in 10.0 mi Calm Calm - N/A   Clear
5:35 AM 71.1 °F - 70.7 °F 99% 29.92 in 7.0 mi Calm Calm - N/A   Clear
5:55 AM 70.5 °F - 70.0 °F 98% 29.93 in 7.0 mi Calm Calm - N/A   Clear
6:15 AM 70.0 °F - 70.0 °F 100% 29.94 in 5.0 mi Calm Calm - N/A   Clear
6:35 AM 70.2 °F - 70.2 °F 100% 29.94 in 7.0 mi Calm Calm - N/A   Clear
6:55 AM 70.0 °F - 70.0 °F 100% 29.95 in 5.0 mi Calm Calm - N/A   Clear
7:15 AM 70.3 °F - 70.3 °F 100% 29.96 in 10.0 mi Calm Calm - N/A   Scattered Clouds
7:35 AM - - - N/A% 29.97 in 10.0 mi Calm Calm - N/A   Mostly Cloudy
7:55 AM 72.3 °F - 72.1 °F 99% 29.97 in 10.0 mi Calm Calm - N/A   Mostly Cloudy
8:35 AM 75.7 °F - 69.8 °F 82% 29.97 in 10.0 mi Calm Calm - N/A   Scattered Clouds
8:55 AM 79.5 °F - 69.4 °F 71% 29.98 in 10.0 mi Calm Calm - N/A   Scattered Clouds
9:15 AM 81.5 °F 84.6 °F 68.5 °F 65% 29.98 in 10.0 mi NW 3.5 mph - N/A   Scattered Clouds
9:35 AM 84.0 °F 87.0 °F 67.8 °F 58% 29.98 in 10.0 mi NW 8.1 mph - N/A   Clear
9:55 AM 85.5 °F 88.2 °F 66.9 °F 54% 29.98 in 10.0 mi NNW 11.5 mph 17.3 mph N/A   Clear
10:15 AM 86.9 °F 89.6 °F 66.9 °F 51% 29.99 in 10.0 mi NW 6.9 mph - N/A   Clear
10:35 AM 87.4 °F 89.8 °F 66.2 °F 49% 29.98 in 10.0 mi North 8.1 mph - N/A   Mostly Cloudy
10:55 AM 87.6 °F 90.1 °F 66.2 °F 49% 29.98 in 10.0 mi NNW 6.9 mph - N/A   Mostly Cloudy
11:15 AM 88.3 °F 90.5 °F 65.8 °F 47% 29.98 in 10.0 mi North 8.1 mph - N/A   Mostly Cloudy
11:35 AM 89.4 °F 91.2 °F 65.1 °F 44% 29.97 in 10.0 mi North 8.1 mph - N/A   Mostly Cloudy
11:55 AM 90.5 °F 92.5 °F 64.9 °F 43% 29.96 in 10.0 mi WNW 8.1 mph - N/A   Scattered Clouds
12:15 PM 91.9 °F 93.7 °F 64.4 °F 40% 29.96 in 10.0 mi NW 4.6 mph - N/A   Scattered Clouds
12:35 PM 91.6 °F 93.1 °F 64.0 °F 40% 29.95 in 10.0 mi NNW 5.8 mph - N/A   Scattered Clouds
12:55 PM 91.6 °F 93.1 °F 63.9 °F 40% 29.94 in 10.0 mi Calm Calm - N/A   Clear
1:15 PM 91.8 °F 93.4 °F 64.6 °F 40% 29.94 in 10.0 mi North 4.6 mph - N/A   Clear
1:35 PM 93.6 °F 95.5 °F 64.4 °F 38% 29.93 in 10.0 mi Calm Calm - N/A   Clear
1:55 PM 93.0 °F 94.6 °F 63.9 °F 38% 29.92 in 10.0 mi Calm Calm - N/A   Clear
2:15 PM 93.0 °F 94.2 °F 63.3 °F 37% 29.91 in 10.0 mi NNE 3.5 mph - N/A   Clear
2:35 PM 93.2 °F 94.5 °F 63.5 °F 37% 29.90 in 10.0 mi Calm Calm - N/A   Clear
2:55 PM 93.6 °F 94.2 °F 62.4 °F 35% 29.89 in 10.0 mi Calm Calm - N/A   Scattered Clouds
3:15 PM 95.4 °F 96.6 °F 62.8 °F 34% 29.89 in 10.0 mi West 4.6 mph - N/A   Clear
3:35 PM 94.6 °F 95.9 °F 62.8 °F 35% 29.88 in 10.0 mi NW 5.8 mph - N/A   Mostly Cloudy
3:55 PM 93.4 °F 93.9 °F 62.1 °F 35% 29.88 in 10.0 mi West 4.6 mph - N/A   Scattered Clouds
4:35 PM 93.9 °F 95.2 °F 63.0 °F 36% 29.87 in 10.0 mi North 4.6 mph - N/A   Scattered Clouds
4:55 PM 94.3 °F 95.8 °F 63.3 °F 36% 29.87 in 10.0 mi NNW 5.8 mph - N/A   Clear
5:15 PM 92.5 °F 93.7 °F 63.7 °F 38% 29.87 in 10.0 mi North 5.8 mph - N/A   Clear
5:35 PM 92.3 °F 93.8 °F 64.0 °F 39% 29.86 in 10.0 mi Calm Calm - N/A   Clear
5:55 PM 92.5 °F 94.6 °F 64.6 °F 40% 29.86 in 10.0 mi NE 3.5 mph - N/A   Clear
6:15 PM 90.7 °F 92.8 °F 65.1 °F 43% 29.87 in 10.0 mi ENE 3.5 mph - N/A   Clear
6:35 PM 87.8 °F 90.7 °F 67.3 °F 50% 29.87 in 10.0 mi Calm Calm - N/A   Clear
6:55 PM 84.6 °F 87.6 °F 68.0 °F 57% 29.87 in 10.0 mi Calm Calm - N/A   Clear
7:15 PM 81.7 °F 84.7 °F 68.4 °F 64% 29.87 in 10.0 mi Calm Calm - N/A   Clear
7:35 PM 81.3 °F 84.1 °F 68.2 °F 64% 29.87 in 10.0 mi Calm Calm - N/A   Clear
7:55 PM 80.2 °F 83.0 °F 68.5 °F 67% 29.88 in 10.0 mi Calm Calm - N/A   Clear
8:15 PM 78.4 °F - 68.9 °F 72% 29.88 in 10.0 mi Calm Calm - N/A   Clear
8:35 PM 77.7 °F - 68.9 °F 74% 29.89 in 10.0 mi Calm Calm - N/A   Clear
8:55 PM 77.4 °F - 69.4 °F 76% 29.89 in 10.0 mi Calm Calm - N/A   Clear
9:15 PM 76.5 °F - 69.4 °F 79% 29.90 in 10.0 mi Calm Calm - N/A   Clear
9:35 PM 75.2 °F - 69.1 °F 81% 29.91 in 10.0 mi Calm Calm - N/A   Clear
9:55 PM 75.2 °F - 69.6 °F 83% 29.91 in 10.0 mi Calm Calm - N/A   Clear
10:15 PM 75.2 °F - 70.2 °F 84% 29.91 in 10.0 mi Calm Calm - N/A   Clear
10:35 PM 74.3 °F - 69.6 °F 85% 29.91 in 10.0 mi Calm Calm - N/A   Clear
10:55 PM 73.9 °F - 69.3 °F 85% 29.91 in 10.0 mi Calm Calm - N/A   Clear
11:15 PM 73.4 °F - 69.1 °F 86% 29.91 in 10.0 mi Calm Calm - N/A   Clear
11:35 PM 73.4 °F - 69.8 °F 88% 29.91 in 10.0 mi Calm Calm - N/A   Clear
11:55 PM 72.7 °F - 69.3 °F 89% 29.91 in 10.0 mi Calm Calm - N/A   Clear